Find Starlink 38371

NORAD ID: 100505 Int'l Des: 2026-197 Owner: SPXS Country: US Constellation: starlink operational

現在のビュー

3D地球を読み込み中...

About Starlink 38371

Starlink 38371 (NORAD 100505) is a starlink constellation satellite launched Aug 25, 2026 by SPXS of US. with a mass of 575.00 kg.

次回通過

Passes for default location (London). Set your location on the main map for personalized predictions.

高度履歴

Loading altitude history...

軌道要素

1 A0505U 26197D 26254.63799839 .00180325 00000-0 85868-3 0 9995
2 A0505 69.9977 146.7668 0003881 270.5818 89.4939 15.82209225 2592
Epoch: Sep 11, 2026 • Age: 8 hours

現在のステータス

高度 326.7 km
遠地点 / 近地点 N/A
速度 7.71 km/s
衛星直下点 -3.28°S, 170.45°E
打ち上げ日 Aug 25, 2026
運用期間 17 days
タイプ internet

技術仕様

分類 Payload
質量 575.00 kg
乾燥質量 530.00 kg
総質量 575.00 kg
長さ 0.30 m
直径 4.10 m
スパン 29.00 m
形状 Box + pan
製造者 SPXS
バスタイプ Starlink V2MO
フェーズステータス In Orbit
所有者/国 SPXS/US

Most Searched